| time (UTC) | temp F | wind direction | speed MPH | gust MPH | rain 1hr in | rain 24hr in | rain mn in | humidity % | barometer mb |
| 20260507113042 | 64 | 150 | 5.0 | 8.0 | 0.00 | 0.01 | 0.00 | 79 | 1014.5 |
| 20260507111537 | 63 | 148 | 6.0 | 10.0 | 0.00 | 0.01 | 0.00 | 81 | 1014.6 |
| 20260507110036 | 63 | 130 | 7.0 | 11.0 | 0.00 | 0.01 | 0.00 | 81 | 1014.6 |
| 20260507104543 | 63 | 126 | 9.0 | 13.0 | 0.00 | 0.01 | 0.00 | 81 | 1014.7 |
| 20260507103043 | 63 | 124 | 11.0 | 13.0 | 0.00 | 0.01 | 0.00 | 81 | 1014.7 |
| 20260507101540 | 64 | 134 | 10.0 | 14.0 | 0.00 | 0.01 | 0.00 | 80 | 1014.7 |
| 20260507100041 | 64 | 149 | 10.0 | 15.0 | 0.00 | 0.01 | 0.00 | 80 | 1014.8 |
| 20260507094538 | 63 | 142 | 13.0 | 17.0 | 0.00 | 0.01 | 0.00 | 79 | 1014.5 |
| 20260507093049 | 64 | 140 | 12.0 | 16.0 | 0.00 | 0.01 | 0.00 | 79 | 1014.5 |
| 20260507091549 | 63 | 135 | 12.0 | 14.0 | 0.00 | 0.01 | 0.00 | 78 | 1014.4 |
| 20260507090040 | 64 | 121 | 10.0 | 13.0 | 0.00 | 0.01 | 0.00 | 75 | 1014.1 |
| 20260507084539 | 64 | 175 | 5.0 | 9.0 | 0.00 | 0.01 | 0.00 | 74 | 1013.9 |
| 20260507083036 | 65 | 165 | 5.0 | 9.0 | 0.00 | 0.01 | 0.00 | 74 | 1013.8 |
| 20260507081544 | 64 | 100 | 2.0 | 4.0 | 0.00 | 0.01 | 0.00 | 70 | 1013.9 |
| 20260507080044 | 64 | 98 | 3.0 | 6.0 | 0.00 | 0.01 | 0.00 | 69 | 1014.0 |
| 20260507074557 | 64 | 102 | 3.0 | 5.0 | 0.00 | 0.01 | 0.00 | 68 | 1014.2 |
| 20260507073036 | 64 | 148 | 2.0 | 4.0 | 0.00 | 0.01 | 0.00 | 65 | 1014.4 |
| 20260507071543 | 64 | 76 | 2.0 | 7.0 | 0.00 | 0.01 | 0.00 | 64 | 1014.3 |
| 20260507070043 | 64 | 85 | 3.0 | 6.0 | 0.00 | 0.01 | 0.00 | 65 | 1014.3 |
| 20260507064540 | 64 | 109 | 7.0 | 10.0 | 0.00 | 0.01 | 0.00 | 65 | 1013.9 |
| 20260507063039 | 65 | 245 | 1.0 | 7.0 | 0.00 | 0.01 | 0.00 | 62 | 1013.8 |
| 20260507061538 | 64 | 236 | 1.0 | 7.0 | 0.00 | 0.01 | 0.00 | 65 | 1013.7 |
| 20260507060039 | 63 | 257 | 4.0 | 9.0 | 0.00 | 0.01 | 0.00 | 68 | 1013.7 |
| 20260507054542 | 62 | 213 | 0.0 | 4.0 | 0.00 | 0.01 | 0.00 | 70 | 1013.5 |
| 20260507053043 | 61 | 261 | 2.0 | 9.0 | 0.00 | 0.01 | 0.00 | 72 | 1013.2 |
| 20260507051542 | 61 | 286 | 3.0 | 13.0 | 0.00 | 0.01 | 0.00 | 71 | 1013.0 |
| 20260507050039 | 59 | 315 | 8.0 | 14.0 | 0.00 | 0.01 | 0.00 | 77 | 1012.7 |
| 20260507044544 | 56 | 199 | 4.0 | 9.0 | 0.00 | 0.01 | 0.00 | 79 | 1012.5 |
| 20260507043036 | 55 | 259 | 8.0 | 11.0 | 0.00 | 0.01 | 0.00 | 78 | 1012.5 |
| 20260507041540 | 56 | 289 | 4.0 | 7.0 | 0.00 | 0.01 | 0.00 | 78 | 1012.4 |
| 20260507040045 | 55 | 269 | 5.0 | 7.0 | 0.00 | 0.01 | 0.00 | 78 | 1012.6 |
| 20260507034542 | 56 | 225 | 1.0 | 9.0 | 0.00 | 0.01 | 0.00 | 77 | 1012.5 |
| 20260507033042 | 56 | 275 | 4.0 | 7.0 | 0.00 | 0.01 | 0.00 | 76 | 1012.4 |
| 20260507031546 | 57 | 266 | 3.0 | 11.0 | 0.00 | 0.01 | 0.00 | 75 | 1012.5 |
| 20260507030047 | 57 | 273 | 3.0 | 10.0 | 0.00 | 0.01 | 0.00 | 74 | 1012.7 |
| 20260507024544 | 59 | 215 | 5.0 | 10.0 | 0.00 | 0.01 | 0.00 | 69 | 1012.6 |
| 20260507023040 | 60 | 238 | 6.0 | 10.0 | 0.00 | 0.01 | 0.00 | 66 | 1012.5 |
| 20260507021539 | 61 | 290 | 6.0 | 12.0 | 0.00 | 0.01 | 0.00 | 66 | 1012.5 |
| 20260507020039 | 61 | 247 | 5.0 | 12.0 | 0.00 | 0.01 | 0.00 | 62 | 1012.4 |
| 20260507014547 | 59 | 304 | 5.0 | 14.0 | 0.00 | 0.03 | 0.00 | 67 | 1012.2 |
| 20260507013036 | 62 | 312 | 6.0 | 13.0 | 0.00 | 0.03 | 0.00 | 59 | 1012.1 |
| 20260507011535 | 60 | 279 | 3.0 | 11.0 | 0.00 | 0.03 | 0.00 | 68 | 1012.1 |
| 20260507010044 | 59 | 240 | 9.0 | 14.0 | 0.00 | 0.03 | 0.00 | 69 | 1012.1 |
| 20260507004540 | 62 | 275 | 2.0 | 14.0 | 0.00 | 0.11 | 0.00 | 61 | 1012.3 |
| 20260507003048 | 61 | 232 | 5.0 | 13.0 | 0.00 | 0.11 | 0.00 | 63 | 1012.3 |
| 20260507001544 | 62 | 242 | 4.0 | 9.0 | 0.00 | 0.11 | 0.00 | 60 | 1012.1 |
| 20260507000043 | 60 | 277 | 6.0 | 12.0 | 0.00 | 0.11 | 0.00 | 66 | 1012.1 |
| 20260506234543 | 60 | 259 | 7.0 | 12.0 | 0.00 | 0.11 | 0.00 | 64 | 1012.4 |
| 20260506233042 | 60 | 250 | 7.0 | 12.0 | 0.00 | 0.11 | 0.00 | 65 | 1012.5 |
| 20260506231543 | 60 | 259 | 8.0 | 12.0 | 0.00 | 0.11 | 0.00 | 64 | 1012.4 |
| 20260506230036 | 61 | 231 | 6.0 | 14.0 | 0.00 | 0.11 | 0.00 | 61 | 1012.3 |
| 20260506224543 | 63 | 9 | 7.0 | 14.0 | 0.00 | 0.13 | 0.00 | 55 | 1012.3 |
| 20260506223040 | 59 | 259 | 8.0 | 13.0 | 0.00 | 0.13 | 0.00 | 69 | 1012.4 |
| 20260506221539 | 61 | 294 | 5.0 | 11.0 | 0.00 | 0.13 | 0.00 | 65 | 1012.4 |
| 20260506220041 | 63 | 301 | 4.0 | 20.0 | 0.00 | 0.13 | 0.00 | 55 | 1012.3 |
| 20260506214538 | 60 | 244 | 7.0 | 11.0 | 0.00 | 0.14 | 0.13 | 61 | 1012.2 |
| 20260506213036 | 59 | 245 | 4.0 | 8.0 | 0.00 | 0.14 | 0.13 | 67 | 1012.1 |
| 20260506211544 | 59 | 275 | 5.0 | 10.0 | 0.00 | 0.14 | 0.13 | 69 | 1012.2 |
| 20260506210041 | 57 | 266 | 4.0 | 9.0 | 0.00 | 0.14 | 0.13 | 71 | 1012.2 |
| 20260506204544 | 58 | 286 | 3.0 | 8.0 | 0.00 | 0.22 | 0.13 | 71 | 1012.2 |
| 20260506203037 | 57 | 259 | 4.0 | 7.0 | 0.00 | 0.22 | 0.13 | 71 | 1012.4 |
| 20260506201536 | 58 | 258 | 2.0 | 7.0 | 0.00 | 0.22 | 0.13 | 70 | 1012.3 |
| 20260506200043 | 58 | 268 | 5.0 | 7.0 | 0.00 | 0.22 | 0.13 | 69 | 1012.1 |
| 20260506194540 | 59 | 274 | 4.0 | 8.0 | 0.00 | 0.31 | 0.13 | 67 | 1011.8 |
| 20260506193039 | 60 | 263 | 2.0 | 6.0 | 0.00 | 0.31 | 0.13 | 67 | 1011.6 |
| 20260506191538 | 59 | 256 | 3.0 | 9.0 | 0.00 | 0.31 | 0.13 | 69 | 1011.4 |
| 20260506190037 | 62 | 236 | 4.0 | 7.0 | 0.00 | 0.31 | 0.13 | 62 | 1011.2 |
| 20260506184536 | 61 | 227 | 4.0 | 8.0 | 0.00 | 0.31 | 0.13 | 68 | 1011.2 |
| 20260506183042 | 62 | 206 | 3.0 | 7.0 | 0.00 | 0.31 | 0.13 | 67 | 1011.2 |
| 20260506181542 | 64 | 249 | 3.0 | 6.0 | 0.00 | 0.31 | 0.13 | 68 | 1011.0 |
| 20260506180055 | 65 | 234 | 3.0 | 6.0 | 0.00 | 0.31 | 0.13 | 75 | 1011.0 |
| 20260506174542 | 66 | 188 | 5.0 | 8.0 | 0.00 | 0.33 | 0.13 | 76 | 1010.8 |
| 20260506173040 | 65 | 195 | 6.0 | 12.0 | 0.00 | 0.33 | 0.13 | 73 | 1010.8 |
| 20260506171537 | 67 | 184 | 7.0 | 16.0 | 0.00 | 0.33 | 0.13 | 72 | 1010.7 |
| 20260506170053 | 69 | 183 | 7.0 | 21.0 | 0.00 | 0.33 | 0.13 | 63 | 1010.5 |
| 20260506164539 | 70 | 286 | 1.0 | 11.0 | 0.00 | 0.33 | 0.13 | 49 | 1010.6 |
| 20260506163057 | 70 | 306 | 2.0 | 11.0 | 0.00 | 0.33 | 0.13 | 45 | 1010.6 |
| 20260506161538 | 69 | 0 | 2.0 | 9.0 | 0.00 | 0.33 | 0.13 | 49 | 1010.6 |
| 20260506160040 | 68 | 269 | 2.0 | 10.0 | 0.00 | 0.33 | 0.13 | 55 | 1010.7 |
| 20260506154550 | 68 | 325 | 4.0 | 12.0 | 0.00 | 0.33 | 0.13 | 57 | 1010.8 |
| 20260506153049 | 68 | 272 | 7.0 | 18.0 | 0.00 | 0.33 | 0.13 | 54 | 1010.7 |
| 20260506151541 | 69 | 261 | 7.0 | 15.0 | 0.00 | 0.33 | 0.13 | 52 | 1010.7 |
| 20260506150041 | 69 | 288 | 9.0 | 18.0 | 0.00 | 0.33 | 0.13 | 53 | 1010.7 |
| 20260506144541 | 69 | 222 | 7.0 | 19.0 | 0.00 | 0.38 | 0.13 | 59 | 1010.6 |
| 20260506143047 | 69 | 294 | 8.0 | 24.0 | 0.00 | 0.38 | 0.13 | 61 | 1010.5 |
| 20260506141542 | 68 | 247 | 13.0 | 23.0 | 0.00 | 0.38 | 0.13 | 63 | 1010.8 |
| 20260506140039 | 68 | 292 | 9.0 | 19.0 | 0.00 | 0.38 | 0.13 | 68 | 1010.7 |
| 20260506134539 | 68 | 262 | 11.0 | 24.0 | 0.00 | 0.50 | 0.13 | 71 | 1010.9 |
| 20260506133037 | 68 | 274 | 10.0 | 17.0 | 0.00 | 0.50 | 0.13 | 72 | 1011.0 |
| 20260506131536 | 67 | 292 | 7.0 | 17.0 | 0.00 | 0.50 | 0.13 | 76 | 1011.0 |
| 20260506130035 | 66 | 260 | 13.0 | 21.0 | 0.00 | 0.50 | 0.13 | 75 | 1011.2 |
| 20260506124541 | 67 | 184 | 7.0 | 20.0 | 0.00 | 0.52 | 0.13 | 77 | 1011.1 |
| 20260506123039 | 67 | 255 | 8.0 | 19.0 | 0.01 | 0.52 | 0.13 | 80 | 1011.1 |
| 20260506121543 | 66 | 250 | 9.0 | 20.0 | 0.01 | 0.52 | 0.13 | 82 | 1011.0 |
| 20260506120036 | 66 | 300 | 6.0 | 11.0 | 0.01 | 0.52 | 0.13 | 84 | 1011.0 |
| 20260506114552 | 65 | 219 | 6.0 | 12.0 | 0.01 | 0.52 | 0.13 | 85 | 1011.1 |